Hourly Weather Medvenskiy

Today, 4 March, Thursday

Time Temperature Precipitation Wind Pressure Humidity
00:00 -4°C° 0 mm 5 mps 741 mmHg 91%
01:00 -4°C° 0.1 mm 6 mps 741 mmHg 92%
02:00 -4°C° 0.1 mm 7 mps 740 mmHg 92%
03:00 -4°C° 0 mm 6 mps 739 mmHg 92%
04:00 -4°C° 0.1 mm 7 mps 739 mmHg 92%
05:00 -4°C° 0.1 mm 7 mps 738 mmHg 91%
06:00 -4°C° 0.1 mm 7 mps 737 mmHg 90%
07:00 -4°C° 0 mm 7 mps 737 mmHg 90%
08:00 -4°C° 0 mm 7 mps 737 mmHg 90%
09:00 -6°C° 0 mm 7 mps 736 mmHg 89%
10:00 -4°C° 0 mm 7 mps 735 mmHg 89%
11:00 -4°C° 0 mm 7 mps 735 mmHg 89%
12:00 -4°C° 0 mm 7 mps 735 mmHg 90%
13:00 -3°C° 0 mm 7 mps 734 mmHg 91%
14:00 -3°C° 0 mm 6 mps 734 mmHg 92%
15:00 -3°C° 0 mm 6 mps 734 mmHg 93%
16:00 -2°C° 0.1 mm 5 mps 734 mmHg 94%
17:00 -4°C° 0.1 mm 5 mps 734 mmHg 94%
18:00 -4°C° 0.1 mm 5 mps 733 mmHg 95%
19:00 -4°C° 0.3 mm 5 mps 734 mmHg 95%
20:00 -4°C° 0.3 mm 4 mps 734 mmHg 96%
21:00 -4°C° 0.3 mm 4 mps 734 mmHg 96%
22:00 -4°C° 0.2 mm 3 mps 734 mmHg 96%
23:00 -5°C° 0.2 mm 3 mps 734 mmHg 95%

Tomorrow, 5 March, Friday

Time Temperature Precipitation Wind Pressure Humidity
00:00 -5°C° 0.2 mm 2 mps 734 mmHg 95%
01:00 -5°C° 0 mm 2 mps 734 mmHg 95%
02:00 -6°C° 0 mm 2 mps 735 mmHg 94%
03:00 -6°C° 0 mm 2 mps 735 mmHg 94%
04:00 -7°C° 0 mm 2 mps 736 mmHg 94%
05:00 -8°C° 0 mm 2 mps 736 mmHg 94%
06:00 -9°C° 0 mm 2 mps 737 mmHg 94%
07:00 -8°C° 0 mm 2 mps 737 mmHg 94%
08:00 -8°C° 0 mm 2 mps 738 mmHg 94%
09:00 -8°C° 0 mm 2 mps 738 mmHg 94%
10:00 -7°C° 0 mm 2 mps 739 mmHg 92%
11:00 -7°C° 0 mm 3 mps 739 mmHg 91%
12:00 -5°C° 0 mm 3 mps 740 mmHg 89%
13:00 -5°C° 0 mm 3 mps 740 mmHg 86%
14:00 -5°C° 0 mm 3 mps 740 mmHg 84%
15:00 -4°C° 0 mm 3 mps 741 mmHg 82%
16:00 -5°C° 0 mm 3 mps 741 mmHg 83%
17:00 -6°C° 0 mm 2 mps 741 mmHg 85%
18:00 -7°C° 0 mm 2 mps 741 mmHg 86%
19:00 -7°C° 0 mm 2 mps 742 mmHg 87%
20:00 -8°C° 0 mm 2 mps 742 mmHg 87%
21:00 -8°C° 0 mm 1 mps 743 mmHg 88%
22:00 -9°C° 0 mm 1 mps 743 mmHg 88%
23:00 -9°C° 0 mm 1 mps 743 mmHg 89%

Day after tomorrow, 6 March, Saturday

Time Temperature Precipitation Wind Pressure Humidity
00:00 -10°C° 0 mm 1 mps 743 mmHg 89%
01:00 -10°C° 0 mm 1 mps 743 mmHg 90%
02:00 -10°C° 0 mm 1 mps 743 mmHg 90%
03:00 -10°C° 0 mm 1 mps 743 mmHg 90%
04:00 -10°C° 0 mm 1 mps 743 mmHg 91%
05:00 -10°C° 0 mm 1 mps 743 mmHg 92%
06:00 -9°C° 0 mm 1 mps 743 mmHg 93%
07:00 -9°C° 0 mm 1 mps 743 mmHg 94%
08:00 -8°C° 0 mm 1 mps 743 mmHg 94%
09:00 -9°C° 0 mm 2 mps 743 mmHg 95%
10:00 -8°C° 0.1 mm 2 mps 743 mmHg 93%
11:00 -6°C° 0.1 mm 1 mps 744 mmHg 92%
12:00 -4°C° 0.1 mm 1 mps 744 mmHg 91%
13:00 -5°C° 0.2 mm 2 mps 744 mmHg 91%
14:00 -5°C° 0.2 mm 2 mps 744 mmHg 91%
15:00 -6°C° 0.2 mm 3 mps 744 mmHg 91%
16:00 -7°C° 0.1 mm 3 mps 744 mmHg 91%
17:00 -8°C° 0.1 mm 3 mps 744 mmHg 90%
18:00 -10°C° 0.1 mm 4 mps 744 mmHg 90%
19:00 -10°C° 0 mm 3 mps 744 mmHg 90%
20:00 -12°C° 0 mm 3 mps 745 mmHg 91%
21:00 -13°C° 0 mm 2 mps 745 mmHg 91%
22:00 -14°C° 0 mm 3 mps 745 mmHg 90%
23:00 -15°C° 0 mm 3 mps 745 mmHg 90%

7 March, Sunday

Time Temperature Precipitation Wind Pressure Humidity
00:00 -15°C° 0 mm 3 mps 744 mmHg 89%
01:00 -15°C° 0 mm 3 mps 744 mmHg 90%
02:00 -16°C° 0 mm 4 mps 743 mmHg 90%
03:00 -15°C° 0 mm 5 mps 743 mmHg 91%
04:00 -14°C° 0 mm 5 mps 742 mmHg 90%
05:00 -14°C° 0 mm 6 mps 741 mmHg 88%
06:00 -14°C° 0 mm 7 mps 740 mmHg 87%
07:00 -13°C° 0 mm 8 mps 739 mmHg 85%
08:00 -12°C° 0 mm 9 mps 738 mmHg 84%
09:00 -11°C° 0 mm 9 mps 737 mmHg 83%
10:00 -10°C° 0.2 mm 10 mps 736 mmHg 86%
11:00 -10°C° 0.2 mm 10 mps 735 mmHg 89%
12:00 -9°C° 0.2 mm 11 mps 734 mmHg 92%
13:00 -8°C° 0.3 mm 11 mps 733 mmHg 91%
14:00 -8°C° 0.3 mm 11 mps 732 mmHg 91%
15:00 -7°C° 0.3 mm 11 mps 732 mmHg 91%
16:00 -8°C° 0.5 mm 9 mps 732 mmHg 86%
17:00 -8°C° 0.5 mm 7 mps 733 mmHg 81%
18:00 -8°C° 0.5 mm 5 mps 733 mmHg 76%
19:00 -11°C° 0 mm 5 mps 733 mmHg 76%
20:00 -11°C° 0 mm 4 mps 734 mmHg 77%
21:00 -13°C° 0 mm 3 mps 734 mmHg 77%
22:00 -14°C° 0 mm 4 mps 734 mmHg 79%
23:00 -13°C° 0 mm 5 mps 734 mmHg 81%

8 March, Monday

Time Temperature Precipitation Wind Pressure Humidity
00:00 -13°C° 0 mm 5 mps 733 mmHg 83%
01:00 -13°C° 0 mm 5 mps 733 mmHg 84%
02:00 -13°C° 0 mm 5 mps 732 mmHg 85%
03:00 -13°C° 0 mm 5 mps 732 mmHg 86%
04:00 -12°C° 0 mm 6 mps 731 mmHg 87%
05:00 -12°C° 0 mm 6 mps 731 mmHg 89%
06:00 -12°C° 0 mm 7 mps 730 mmHg 91%
07:00 -13°C° 0.2 mm 7 mps 731 mmHg 88%
08:00 -13°C° 0.2 mm 7 mps 731 mmHg 86%
09:00 -15°C° 0.2 mm 8 mps 732 mmHg 83%
10:00 -15°C° 0 mm 8 mps 733 mmHg 82%
11:00 -14°C° 0 mm 9 mps 733 mmHg 81%
12:00 -14°C° 0 mm 9 mps 734 mmHg 80%
13:00 -14°C° 0 mm 9 mps 735 mmHg 79%
14:00 -12°C° 0 mm 8 mps 736 mmHg 78%
15:00 -12°C° 0 mm 8 mps 737 mmHg 76%
16:00 -12°C° 0 mm 6 mps 737 mmHg 79%
17:00 -13°C° 0 mm 5 mps 738 mmHg 82%
18:00 -12°C° 0 mm 4 mps 739 mmHg 84%
19:00 -13°C° 0 mm 3 mps 739 mmHg 86%
20:00 -14°C° 0 mm 3 mps 740 mmHg 88%
21:00 -15°C° 0 mm 3 mps 740 mmHg 90%
22:00 -16°C° 0 mm 3 mps 741 mmHg 91%
23:00 -15°C° 0 mm 2 mps 741 mmHg 92%

9 March, Tuesday

Time Temperature Precipitation Wind Pressure Humidity
00:00 -16°C° 0 mm 2 mps 741 mmHg 93%
01:00 -16°C° 0 mm 2 mps 742 mmHg 94%
02:00 -17°C° 0 mm 2 mps 742 mmHg 94%
03:00 -17°C° 0 mm 2 mps 742 mmHg 95%
04:00 -17°C° 0 mm 2 mps 743 mmHg 95%
05:00 -18°C° 0 mm 2 mps 743 mmHg 95%
06:00 -18°C° 0 mm 2 mps 743 mmHg 96%
07:00 -17°C° 0 mm 2 mps 744 mmHg 95%
08:00 -16°C° 0 mm 2 mps 744 mmHg 94%
09:00 -16°C° 0 mm 3 mps 745 mmHg 94%
10:00 -15°C° 0 mm 3 mps 745 mmHg 92%
11:00 -15°C° 0 mm 3 mps 745 mmHg 90%
12:00 -14°C° 0 mm 3 mps 746 mmHg 88%
13:00 -14°C° 0 mm 3 mps 746 mmHg 88%
14:00 -13°C° 0 mm 3 mps 746 mmHg 87%
15:00 -14°C° 0 mm 4 mps 747 mmHg 86%
16:00 -15°C° 0 mm 4 mps 747 mmHg 88%
17:00 -14°C° 0 mm 3 mps 747 mmHg 90%
18:00 -15°C° 0 mm 3 mps 748 mmHg 91%
19:00 -16°C° 0 mm 4 mps 748 mmHg 92%
20:00 -17°C° 0 mm 4 mps 749 mmHg 92%
21:00 -18°C° 0 mm 4 mps 750 mmHg 93%
22:00 -18°C° 0 mm 4 mps 750 mmHg 94%
23:00 -18°C° 0 mm 3 mps 750 mmHg 95%
Show more